| time (UTC) | temp F | wind direction | speed MPH | gust MPH | rain 1hr in | rain 24hr in | rain mn in | humidity % | barometer mb |
| 20260509222306 | 61 | 231 | 9.0 | 15.0 | 0.00 | 0.29 | 0.03 | 6 | 1007.0 |
| 20260509221803 | 62 | 232 | 6.0 | 14.0 | 0.00 | 0.29 | 0.03 | 4 | 1007.0 |
| 20260509215804 | 62 | 218 | 3.0 | 13.0 | 0.00 | 0.33 | 0.03 | 4 | 1006.7 |
| 20260509215306 | 61 | 207 | 6.0 | 15.0 | 0.00 | 0.33 | 0.03 | 4 | 1006.7 |
| 20260509214804 | 61 | 214 | 5.0 | 12.0 | 0.00 | 0.33 | 0.03 | 4 | 1006.8 |
| 20260509214303 | 62 | 217 | 5.0 | 10.0 | 0.00 | 0.33 | 0.03 | 4 | 1006.9 |
| 20260509213804 | 62 | 232 | 5.0 | 12.0 | 0.00 | 0.33 | 0.03 | 4 | 1006.9 |
| 20260509212804 | 61 | 230 | 2.0 | 12.0 | 0.00 | 0.33 | 0.03 | 4 | 1006.8 |
| 20260509211804 | 60 | 242 | 4.0 | 10.0 | 0.00 | 0.33 | 0.03 | 4 | 1006.8 |
| 20260509211304 | 60 | 249 | 5.0 | 15.0 | 0.00 | 0.33 | 0.03 | 4 | 1006.8 |
| 20260509205306 | 60 | 230 | 7.0 | 14.0 | 0.00 | 0.33 | 0.03 | 4 | 1006.6 |
| 20260509204304 | 60 | 233 | 7.0 | 12.0 | 0.00 | 0.33 | 0.03 | 4 | 1006.7 |
| 20260509203304 | 59 | 235 | 3.0 | 9.0 | 0.00 | 0.33 | 0.03 | 4 | 1006.6 |
| 20260509202804 | 59 | 268 | 2.0 | 3.0 | 0.00 | 0.33 | 0.03 | 4 | 1006.6 |
| 20260509201803 | 58 | 251 | 2.0 | 6.0 | 0.00 | 0.33 | 0.03 | 4 | 1006.4 |
| 20260509201304 | 57 | 243 | 2.0 | 9.0 | 0.00 | 0.33 | 0.03 | 4 | 1006.4 |
| 20260509200803 | 57 | 266 | 2.0 | 5.0 | 0.00 | 0.33 | 0.03 | 4 | 1006.3 |
| 20260509195804 | 56 | 233 | 3.0 | 6.0 | 0.00 | 0.33 | 0.03 | 4 | 1006.2 |
| 20260509194804 | 55 | 262 | 1.0 | 3.0 | 0.00 | 0.33 | 0.03 | 4 | 1006.2 |
| 20260509194304 | 55 | 256 | 3.0 | 6.0 | 0.00 | 0.33 | 0.03 | 4 | 1006.2 |
| 20260509193304 | 55 | 236 | 2.0 | 7.0 | 0.00 | 0.33 | 0.03 | 4 | 1006.1 |
| 20260509191804 | 55 | 272 | 1.0 | 3.0 | 0.00 | 0.33 | 0.03 | 4 | 1006.1 |
| 20260509191303 | 55 | 241 | 2.0 | 3.0 | 0.00 | 0.33 | 0.03 | 4 | 1006.0 |
| 20260509185306 | 56 | 241 | 3.0 | 7.0 | 0.00 | 0.34 | 0.03 | 4 | 1005.9 |
| 20260509184804 | 56 | 242 | 3.0 | 6.0 | 0.00 | 0.34 | 0.03 | 4 | 1006.0 |
| 20260509182803 | 56 | 232 | 3.0 | 8.0 | 0.00 | 0.34 | 0.03 | 4 | 1005.9 |
| 20260509181803 | 57 | 233 | 2.0 | 8.0 | 0.00 | 0.35 | 0.03 | 4 | 1005.8 |
| 20260509180805 | 57 | 242 | 3.0 | 10.0 | 0.00 | 0.35 | 0.03 | 4 | 1005.9 |
| 20260509175803 | 57 | 253 | 2.0 | 6.0 | 0.00 | 0.35 | 0.03 | 4 | 1005.6 |
| 20260509175306 | 57 | 248 | 3.0 | 7.0 | 0.00 | 0.35 | 0.03 | 4 | 1005.6 |
| 20260509173803 | 56 | 247 | 3.0 | 8.0 | 0.00 | 0.35 | 0.03 | 4 | 1005.5 |
| 20260509173304 | 56 | 232 | 3.0 | 7.0 | 0.00 | 0.35 | 0.03 | 4 | 1005.5 |
| 20260509172804 | 56 | 239 | 3.0 | 7.0 | 0.00 | 0.35 | 0.03 | 4 | 1005.4 |
| 20260509172306 | 56 | 239 | 2.0 | 6.0 | 0.00 | 0.35 | 0.03 | 4 | 1005.4 |
| 20260509171804 | 56 | 227 | 3.0 | 8.0 | 0.00 | 0.35 | 0.03 | 4 | 1005.4 |
| 20260509171304 | 56 | 221 | 4.0 | 8.0 | 0.00 | 0.35 | 0.03 | 4 | 1005.3 |
| 20260509170804 | 56 | 230 | 2.0 | 8.0 | 0.00 | 0.35 | 0.03 | 4 | 1005.3 |
| 20260509170303 | 56 | 234 | 2.0 | 5.0 | 0.00 | 0.35 | 0.03 | 4 | 1005.3 |
| 20260509165804 | 56 | 207 | 1.0 | 6.0 | 0.00 | 0.35 | 0.03 | 4 | 1005.2 |
| 20260509165306 | 55 | 239 | 3.0 | 7.0 | 0.00 | 0.35 | 0.03 | 4 | 1005.2 |
| 20260509164804 | 55 | 240 | 3.0 | 8.0 | 0.00 | 0.35 | 0.03 | 4 | 1005.2 |
| 20260509164304 | 55 | 244 | 3.0 | 7.0 | 0.00 | 0.35 | 0.03 | 4 | 1005.2 |
| 20260509163803 | 55 | 247 | 1.0 | 5.0 | 0.00 | 0.35 | 0.03 | 4 | 1005.2 |
| 20260509162804 | 55 | 234 | 2.0 | 5.0 | 0.00 | 0.35 | 0.03 | 4 | 1005.1 |
| 20260509162307 | 55 | 232 | 3.0 | 8.0 | 0.00 | 0.35 | 0.03 | 4 | 1005.2 |
| 20260509161305 | 54 | 228 | 2.0 | 6.0 | 0.00 | 0.35 | 0.03 | 4 | 1005.3 |
| 20260509154806 | 54 | 234 | 2.0 | 3.0 | 0.00 | 0.35 | 0.03 | 4 | 1005.1 |
| 20260509154304 | 54 | 242 | 2.0 | 5.0 | 0.00 | 0.35 | 0.03 | 4 | 1005.2 |
| 20260509153805 | 54 | 248 | 2.0 | 5.0 | 0.00 | 0.35 | 0.03 | 4 | 1005.3 |
| 20260509153304 | 54 | 213 | 1.0 | 3.0 | 0.00 | 0.35 | 0.03 | 4 | 1005.3 |
| 20260509152807 | 54 | 237 | 1.0 | 3.0 | 0.00 | 0.35 | 0.03 | 4 | 1005.3 |
| 20260509152306 | 54 | 238 | 2.0 | 3.0 | 0.00 | 0.35 | 0.03 | 4 | 1005.4 |
| 20260509151805 | 54 | 234 | 1.0 | 5.0 | 0.01 | 0.35 | 0.03 | 4 | 1005.4 |
| 20260509144304 | 54 | 222 | 2.0 | 3.0 | 0.01 | 0.35 | 0.03 | 4 | 1005.5 |
| 20260509142307 | 54 | 228 | 3.0 | 6.0 | 0.01 | 0.35 | 0.03 | 4 | 1005.6 |
| 20260509140805 | 55 | 227 | 1.0 | 5.0 | 0.00 | 0.35 | 0.02 | 4 | 1005.6 |
| 20260509140304 | 55 | 235 | 2.0 | 5.0 | 0.00 | 0.35 | 0.02 | 4 | 1005.6 |
| 20260509135306 | 55 | 229 | 2.0 | 3.0 | 0.00 | 0.35 | 0.02 | 4 | 1005.6 |
| 20260509133305 | 55 | 248 | 0.0 | 0.0 | 0.00 | 0.35 | 0.02 | 4 | 1005.6 |
| 20260509132306 | 55 | 251 | 0.0 | 0.0 | 0.00 | 0.35 | 0.02 | 4 | 1005.5 |
| 20260509131806 | 55 | 252 | 0.0 | 0.0 | 0.00 | 0.35 | 0.02 | 4 | 1005.4 |
| 20260509130304 | 55 | 249 | 0.0 | 1.0 | 0.02 | 0.35 | 0.02 | 4 | 1005.4 |
| 20260509125807 | 55 | 214 | 0.0 | 1.0 | 0.02 | 0.37 | 0.02 | 4 | 1005.4 |
| 20260509124304 | 56 | 247 | 0.0 | 2.0 | 0.03 | 0.37 | 0.02 | 4 | 1005.6 |
| 20260509123305 | 56 | 233 | 2.0 | 5.0 | 0.03 | 0.43 | 0.02 | 4 | 1005.7 |
| 20260509122806 | 56 | 242 | 1.0 | 5.0 | 0.03 | 0.45 | 0.02 | 4 | 1005.7 |
| 20260509122306 | 56 | 259 | 2.0 | 3.0 | 0.03 | 0.45 | 0.02 | 4 | 1005.8 |
| 20260509121807 | 56 | 256 | 2.0 | 5.0 | 0.04 | 0.45 | 0.02 | 4 | 1005.8 |
| 20260509120822 | 56 | 169 | 1.0 | 5.0 | 0.08 | 0.44 | 0.01 | 4 | 1006.0 |
| 20260509115307 | 56 | 273 | 0.0 | 1.0 | 0.09 | 0.43 | 0.43 | 4 | 1006.0 |
| 20260509113804 | 56 | 257 | 1.0 | 3.0 | 0.09 | 0.43 | 0.43 | 4 | 1006.1 |
| 20260509112805 | 56 | 236 | 2.0 | 6.0 | 0.09 | 0.46 | 0.43 | 4 | 1006.1 |
| 20260509112307 | 56 | 270 | 2.0 | 3.0 | 0.09 | 0.50 | 0.43 | 4 | 1006.2 |
| 20260509111307 | 56 | 267 | 2.0 | 6.0 | 0.06 | 0.49 | 0.39 | 4 | 1006.2 |
| 20260509105306 | 56 | 244 | 3.0 | 5.0 | 0.01 | 0.43 | 0.34 | 4 | 1006.1 |
| 20260509104805 | 56 | 253 | 2.0 | 3.0 | 0.01 | 0.43 | 0.34 | 4 | 1005.8 |
| 20260509104305 | 56 | 242 | 2.0 | 3.0 | 0.01 | 0.43 | 0.34 | 4 | 1005.7 |
| 20260509102804 | 56 | 246 | 2.0 | 3.0 | 0.01 | 0.43 | 0.34 | 4 | 1005.5 |
| 20260509102306 | 56 | 252 | 2.0 | 5.0 | 0.01 | 0.43 | 0.34 | 4 | 1005.6 |
| 20260509101805 | 56 | 264 | 3.0 | 7.0 | 0.01 | 0.43 | 0.34 | 4 | 1005.9 |
| 20260509100806 | 56 | 278 | 1.0 | 3.0 | 0.00 | 0.43 | 0.33 | 4 | 1005.7 |
| 20260509095804 | 56 | 277 | 3.0 | 6.0 | 0.00 | 0.43 | 0.33 | 4 | 1005.8 |
| 20260509094805 | 56 | 258 | 2.0 | 3.0 | 0.00 | 0.43 | 0.33 | 4 | 1005.6 |
| 20260509094305 | 56 | 265 | 2.0 | 5.0 | 0.00 | 0.43 | 0.33 | 4 | 1005.6 |
| 20260509093305 | 56 | 268 | 1.0 | 3.0 | 0.01 | 0.44 | 0.33 | 4 | 1005.6 |
| 20260509092805 | 56 | 276 | 2.0 | 6.0 | 0.01 | 0.44 | 0.33 | 4 | 1005.5 |
| 20260509092306 | 56 | 264 | 3.0 | 6.0 | 0.01 | 0.45 | 0.33 | 4 | 1005.6 |
| 20260509091805 | 56 | 267 | 4.0 | 8.0 | 0.01 | 0.45 | 0.33 | 4 | 1005.6 |
| 20260509090805 | 56 | 274 | 5.0 | 10.0 | 0.01 | 0.47 | 0.33 | 4 | 1005.7 |
| 20260509090305 | 57 | 281 | 4.0 | 8.0 | 0.01 | 0.47 | 0.33 | 4 | 1005.8 |
| 20260509085805 | 57 | 280 | 3.0 | 7.0 | 0.02 | 0.47 | 0.33 | 4 | 1006.0 |
| 20260509085306 | 57 | 286 | 2.0 | 10.0 | 0.02 | 0.47 | 0.33 | 4 | 1006.0 |
| 20260509084805 | 57 | 259 | 3.0 | 5.0 | 0.02 | 0.47 | 0.33 | 4 | 1006.0 |
| 20260509083304 | 57 | 270 | 4.0 | 8.0 | 0.01 | 0.46 | 0.32 | 4 | 1006.0 |
| 20260509081306 | 57 | 275 | 3.0 | 5.0 | 0.05 | 0.46 | 0.32 | 4 | 1006.0 |
| 20260509074805 | 57 | 258 | 4.0 | 8.0 | 0.10 | 0.49 | 0.31 | 4 | 1005.9 |
| 20260509074305 | 58 | 253 | 4.0 | 12.0 | 0.10 | 0.49 | 0.31 | 4 | 1005.8 |
| 20260509073304 | 58 | 274 | 5.0 | 7.0 | 0.10 | 0.50 | 0.31 | 4 | 1005.9 |
| 20260509072804 | 59 | 260 | 6.0 | 12.0 | 0.09 | 0.50 | 0.31 | 4 | 1005.9 |
| 20260509070305 | 60 | 285 | 3.0 | 10.0 | 0.05 | 0.43 | 0.24 | 4 | 1005.4 |
| 20260509065306 | 61 | 261 | 3.0 | 6.0 | 0.02 | 0.41 | 0.22 | 4 | 1005.4 |
| 20260509064805 | 61 | 272 | 3.0 | 5.0 | 0.02 | 0.40 | 0.21 | 4 | 1005.4 |
| 20260509064305 | 61 | 282 | 2.0 | 5.0 | 0.02 | 0.40 | 0.21 | 4 | 1005.3 |
| 20260509062804 | 62 | 276 | 1.0 | 3.0 | 0.02 | 0.41 | 0.21 | 4 | 1005.4 |
| 20260509061805 | 62 | 265 | 5.0 | 9.0 | 0.01 | 0.39 | 0.20 | 4 | 1005.2 |
| 20260509061307 | 62 | 244 | 3.0 | 8.0 | 0.01 | 0.40 | 0.20 | 4 | 1005.0 |
| 20260509060805 | 62 | 263 | 3.0 | 8.0 | 0.01 | 0.40 | 0.20 | 4 | 1005.0 |
| 20260509060304 | 62 | 258 | 4.0 | 6.0 | 0.01 | 0.40 | 0.20 | 4 | 1005.0 |
| 20260509055805 | 62 | 264 | 5.0 | 9.0 | 0.01 | 0.40 | 0.20 | 4 | 1005.0 |
| 20260509055306 | 62 | 275 | 3.0 | 6.0 | 0.01 | 0.41 | 0.20 | 4 | 1005.1 |
| 20260509054805 | 62 | 265 | 5.0 | 7.0 | 0.01 | 0.41 | 0.20 | 4 | 1005.2 |
| 20260509054304 | 62 | 245 | 5.0 | 12.0 | 0.01 | 0.41 | 0.20 | 4 | 1005.1 |
| 20260509053304 | 62 | 261 | 3.0 | 8.0 | 0.00 | 0.40 | 0.19 | 4 | 1004.9 |
| 20260509052805 | 62 | 256 | 4.0 | 7.0 | 0.00 | 0.40 | 0.19 | 4 | 1004.9 |
| 20260509051806 | 63 | 265 | 5.0 | 8.0 | 0.00 | 0.40 | 0.19 | 4 | 1004.8 |
| 20260509051306 | 63 | 267 | 3.0 | 6.0 | 0.00 | 0.40 | 0.19 | 4 | 1004.9 |
| 20260509050305 | 63 | 280 | 5.0 | 8.0 | 0.00 | 0.40 | 0.19 | 4 | 1004.9 |
| 20260509045807 | 63 | 275 | 3.0 | 8.0 | 0.00 | 0.40 | 0.19 | 4 | 1004.9 |
| 20260509044805 | 63 | 275 | 3.0 | 7.0 | 0.00 | 0.40 | 0.19 | 4 | 1004.9 |
| 20260509043807 | 63 | 260 | 5.0 | 6.0 | 0.00 | 0.40 | 0.19 | 4 | 1004.9 |
| 20260509043305 | 63 | 257 | 5.0 | 9.0 | 0.00 | 0.40 | 0.19 | 4 | 1004.9 |
| 20260509041805 | 63 | 272 | 3.0 | 5.0 | 0.00 | 0.40 | 0.19 | 4 | 1004.9 |
| 20260509040304 | 63 | 265 | 3.0 | 6.0 | 0.00 | 0.40 | 0.19 | 4 | 1005.1 |
| 20260509035804 | 63 | 258 | 3.0 | 10.0 | 0.00 | 0.40 | 0.19 | 4 | 1005.1 |
| 20260509034804 | 65 | 251 | 5.0 | 14.0 | 0.00 | 0.40 | 0.19 | 4 | 1005.3 |
| 20260509034304 | 65 | 267 | 5.0 | 9.0 | 0.00 | 0.40 | 0.19 | 4 | 1005.3 |
| 20260509033304 | 65 | 257 | 3.0 | 13.0 | 0.00 | 0.40 | 0.19 | 4 | 1005.6 |
| 20260509032804 | 65 | 255 | 3.0 | 10.0 | 0.00 | 0.40 | 0.19 | 4 | 1005.8 |
| 20260509032306 | 66 | 244 | 6.0 | 12.0 | 0.00 | 0.40 | 0.19 | 4 | 1005.8 |
| 20260509031303 | 66 | 241 | 2.0 | 9.0 | 0.00 | 0.40 | 0.19 | 4 | 1005.9 |
| 20260509030304 | 66 | 258 | 6.0 | 12.0 | 0.00 | 0.40 | 0.19 | 4 | 1005.9 |
| 20260509025804 | 66 | 253 | 6.0 | 12.0 | 0.00 | 0.40 | 0.19 | 4 | 1005.8 |
| 20260509022307 | 67 | 247 | 5.0 | 10.0 | 0.00 | 0.40 | 0.19 | 45 | 1005.4 |
| 20260509021305 | 68 | 250 | 7.0 | 15.0 | 0.00 | 0.40 | 0.19 | 42 | 1005.6 |
| 20260509020807 | 68 | 266 | 5.0 | 13.0 | 0.00 | 0.40 | 0.19 | 33 | 1005.6 |
| 20260509020307 | 68 | 263 | 7.0 | 12.0 | 0.00 | 0.40 | 0.19 | 24 | 1005.6 |
| 20260509015307 | 67 | 242 | 7.0 | 15.0 | 0.00 | 0.40 | 0.19 | 4 | 1005.6 |
| 20260509013804 | 67 | 283 | 5.0 | 8.0 | 0.00 | 0.40 | 0.19 | 4 | 1005.6 |
| 20260509013305 | 67 | 254 | 7.0 | 14.0 | 0.01 | 0.40 | 0.19 | 4 | 1005.6 |
| 20260509012806 | 67 | 252 | 7.0 | 12.0 | 0.01 | 0.40 | 0.19 | 4 | 1005.7 |
| 20260509011304 | 66 | 267 | 4.0 | 9.0 | 0.01 | 0.40 | 0.19 | 4 | 1005.9 |
| 20260509010805 | 66 | 254 | 5.0 | 12.0 | 0.01 | 0.40 | 0.19 | 4 | 1006.0 |
| 20260509004307 | 62 | 262 | 6.0 | 12.0 | 0.02 | 0.40 | 0.19 | 4 | 1006.7 |
| 20260509003805 | 63 | 258 | 6.0 | 12.0 | 0.02 | 0.40 | 0.19 | 4 | 1006.8 |
| 20260509000305 | 65 | 277 | 6.0 | 12.0 | 0.01 | 0.39 | 0.18 | 4 | 1007.3 |
| 20260508235804 | 65 | 266 | 4.0 | 9.0 | 0.00 | 0.39 | 0.17 | 4 | 1007.4 |
| 20260508234307 | 64 | 256 | 3.0 | 8.0 | 0.00 | 0.39 | 0.17 | 4 | 1007.7 |
| 20260508233806 | 64 | 278 | 2.0 | 6.0 | 0.00 | 0.39 | 0.17 | 4 | 1007.8 |
| 20260508233306 | 64 | 286 | 2.0 | 6.0 | 0.00 | 0.39 | 0.17 | 4 | 1007.9 |
| 20260508232805 | 64 | 276 | 5.0 | 10.0 | 0.00 | 0.39 | 0.17 | 4 | 1007.9 |
| 20260508231804 | 63 | 278 | 3.0 | 7.0 | 0.00 | 0.39 | 0.17 | 4 | 1008.0 |
| 20260508231305 | 63 | 295 | 2.0 | 5.0 | 0.00 | 0.39 | 0.17 | 4 | 1008.0 |
| 20260508230806 | 62 | 274 | 2.0 | 7.0 | 0.00 | 0.39 | 0.17 | 4 | 1008.1 |